sat.trackr.live / text

‹ back to catalog

STARLINK-2557

NORAD 48299 · 2021-036Z

PAYLOAD ACTIVE UNKNOWN

§ Identity

Operator
Country
US
Launch date
2021-04-29
Launch site
AFETR
Launch vehicle
Mass (kg)
RCS (m²)

Purposes: comms

External: N2YO · Heavens-Above · Gunter

§ Orbital elements

Epoch: 2026-09-12T02:03:47.602368Z

Period
94.01 min
Inclination
53.1602°
Eccentricity
0.0001365
Mean motion
15.31689351 rev/d
Perigee alt
469.8 km
Apogee alt
471.7 km
Semi-major
6,848.9 km
B*
5.8051e-5
RAAN
287.9075°
Arg perigee
72.1966°
Mean anomaly
287.9184°
Rev number
29,697

§ Raw data

STARLINK-25571 48299U 21036Z   26255.08596762  .00001436  00000+0  58051-4 0  99932 48299  53.1602 287.9075 0001365  72.1966 287.9184 15.31689351296979

JSON: /api/v1/satellites/48299 · /tle

For live sub-satellite position, see the globe view (requires WebGL).

§ Visibility from observer

Set your observer location to see the next 7 days of passes ≥ 10°. The values pass through the URL so the page stays shareable.

No JS? Fill the form by hand. The geolocation button needs JavaScript.